Wind_Speed
50 49 49 49 48 48 48 47 44 43 40 37 38 36 33 30 29 25 23 26 26 25 23 20 17 14 12 10 7 4 4 5 8 12 15 16 18 18 19 19 19 18 16
49 48 48 49 49 50 49 48 44 45 41 39 39 41 38 34 30 28 24 26 28 26 24 20 17 15 13 10 7 5 5 5 8 12 15 16 17 17 19 17 17 16 15
42 45 46 48 50 50 48 47 46 45 41 39 39 44 40 36 33 31 25 27 29 27 23 20 18 16 14 11 8 7 6 7 9 11 14 15 16 17 16 17 15 14 14
37 42 45 47 47 45 44 42 41 40 40 38 39 41 42 36 37 32 28 30 30 27 24 21 19 17 15 11 9 8 7 8 11 13 15 16 15 17 18 16 13 13 13
30 33 36 41 39 40 40 38 36 37 36 37 39 42 43 40 38 32 30 33 31 28 25 22 20 18 15 12 10 9 9 9 12 14 15 16 16 17 18 17 17 15 12
24 27 30 35 35 37 37 36 35 36 36 36 38 45 43 45 40 27 32 33 30 27 24 22 21 18 16 13 11 10 10 11 13 15 16 17 18 18 18 18 17 16 14
22 25 27 29 31 33 35 36 37 36 38 35 38 42 42 41 30 29 33 31 28 26 24 22 21 19 16 14 12 11 10 14 16 16 17 17 18 19 19 17 15 16 16
22 23 25 28 30 32 34 34 33 36 36 39 40 43 45 34 32 33 33 31 29 26 24 23 21 19 17 13 12 10 13 17 16 17 19 18 19 20 18 17 16 16 16
21 22 23 24 25 26 27 29 29 30 35 37 39 41 36 31 33 35 33 32 30 27 25 24 23 20 16 13 10 14 21 17 18 19 19 20 19 19 19 19 16 16 17
19 20 21 21 21 22 22 25 26 30 33 35 38 41 36 35 35 35 33 32 31 29 27 25 22 18 15 10 10 22 22 19 20 18 19 20 19 19 19 19 18 17 18
15 17 19 20 20 20 22 25 28 27 26 34 37 37 33 35 35 35 33 32 31 29 26 24 21 17 11 10 19 25 23 23 20 20 20 20 20 20 20 20 19 18 19
14 17 18 19 21 20 21 25 28 30 34 36 36 35 36 36 37 35 33 31 29 27 24 21 18 13 12 13 25 26 26 25 22 22 22 21 20 20 21 21 19 18 19
11 14 17 18 20 22 23 26 29 32 35 36 37 37 37 38 38 37 33 31 28 26 22 19 14 15 16 26 29 29 27 25 24 24 24 22 21 21 21 22 23 21 20
9 11 13 17 20 22 25 28 31 35 37 38 38 38 39 40 39 37 33 29 27 24 21 18 17 18 24 29 31 27 27 26 25 25 24 24 23 22 22 21 22 22 23
11 10 12 15 18 21 25 28 32 34 35 37 38 39 40 41 37 31 29 28 25 22 19 18 20 28 31 30 27 26 27 27 26 25 25 24 23 22 22 21 21 21 23
13 12 13 14 16 19 23 26 30 32 32 34 35 36 35 32 28 26 23 22 22 22 21 21 28 30 29 27 26 28 28 26 26 25 24 24 23 23 23 21 20 20 24
13 13 13 14 15 17 21 25 29 29 33 33 32 31 26 22 21 22 24 26 24 23 25 29 30 27 26 30 31 29 27 26 26 25 24 23 23 23 23 22 21 21 22
13 12 12 13 13 15 17 21 26 29 28 26 27 25 22 24 25 27 25 27 26 29 29 33 24 27 30 30 30 28 27 26 25 24 23 22 22 22 23 22 21 21 21
9 9 9 10 11 11 14 18 22 25 25 24 23 24 26 26 28 27 32 34 31 28 31 26 24 28 30 30 28 28 27 25 24 23 22 22 22 22 22 21 21 21 22
9 8 8 8 8 10 11 14 16 20 22 23 23 23 23 28 32 35 37 33 37 37 35 28 25 26 27 28 30 28 26 25 25 24 22 22 21 21 20 20 20 22 22
10 9 9 9 9 9 10 11 11 13 17 19 22 23 25 28 32 37 35 34 33 30 25 23 27 29 29 30 29 29 27 26 25 24 23 22 21 20 19 19 19 19 20
11 10 10 10 10 10 9 8 9 11 14 18 21 23 26 31 32 33 33 33 32 31 27 31 31 30 31 29 28 29 27 26 25 24 23 21 20 20 20 19 18 19 19
11 11 11 11 10 9 10 10 12 14 17 20 22 24 27 30 31 31 31 30 28 27 28 29 31 31 30 29 28 28 27 25 24 24 23 22 21 21 21 19 18 18 17
14 13 12 12 12 12 12 13 14 16 18 20 22 24 26 27 28 29 29 28 27 29 31 32 32 30 30 30 30 28 26 25 25 24 24 24 23 22 22 20 20 18 17
16 16 15 15 15 16 17 18 19 22 23 26 28 29 29 29 29 28 28 28 28 29 31 31 31 30 29 29 29 28 28 27 26 25 25 25 25 23 22 22 21 20 18
19 19 19 18 18 18 20 22 23 24 26 26 26 26 27 27 27 27 28 29 30 30 30 30 29 29 28 28 27 27 27 27 26 24 24 25 25 24 23 24 23 22 20
Wind_Direction
242 242 242 243 243 242 241 240 240 241 248 245 237 237 238 238 233 232 246 246 236 223 224 225 227 226 221 220 229 238 277 320 327 327 327 333 340 347 348 350 351 353 352
244 245 243 243 242 242 242 242 242 245 246 242 237 235 235 233 231 230 245 241 228 224 224 225 228 226 222 229 241 255 282 314 328 327 328 330 335 341 343 348 348 347 348
243 244 242 241 241 242 243 243 244 244 244 239 236 235 232 231 229 228 245 236 223 222 224 226 227 223 223 232 248 266 286 309 320 328 325 327 329 334 341 340 341 340 338
242 240 239 239 238 241 242 244 243 240 239 242 236 235 231 228 226 229 235 226 220 222 223 226 225 222 225 235 245 261 281 304 318 324 325 325 327 329 331 334 335 334 327
251 242 238 243 242 241 242 241 242 238 240 240 234 227 228 222 223 227 233 222 220 221 222 225 223 221 227 237 246 257 274 296 313 319 318 318 317 320 323 330 330 329 324
254 247 242 243 245 246 243 241 239 235 239 238 232 240 222 227 220 226 227 221 221 221 223 222 222 222 228 235 244 256 277 300 307 311 310 312 313 316 320 322 321 321 319
256 254 251 252 251 249 249 246 243 240 235 233 235 223 235 216 221 230 219 221 222 223 223 222 222 223 228 234 243 259 285 294 301 305 310 309 305 311 313 311 309 307 306
257 257 258 259 258 255 250 246 239 235 233 232 232 223 219 218 227 219 217 220 220 223 223 223 223 225 227 234 246 268 294 287 293 301 302 305 303 301 303 305 304 297 297
255 258 262 263 261 257 251 244 239 231 228 233 218 222 218 223 224 218 217 219 221 224 224 224 224 224 227 239 255 298 279 282 287 291 299 303 303 306 309 306 304 295 297
259 257 256 258 258 256 256 251 248 242 233 234 215 217 222 225 217 218 219 221 223 223 223 224 224 225 232 250 300 280 278 281 279 286 292 296 296 298 301 301 294 284 283
264 265 259 255 251 246 253 252 251 238 230 222 224 221 219 220 219 221 221 223 226 227 226 225 223 226 239 279 285 274 279 279 282 287 290 290 291 291 292 293 291 282 276
273 266 261 258 256 250 243 249 251 243 235 231 226 221 220 218 218 221 223 224 226 227 227 224 223 230 256 282 274 275 279 281 286 286 287 289 290 290 293 293 291 284 275
282 275 269 264 257 254 253 246 246 243 237 231 226 225 223 219 219 222 223 224 225 224 222 218 225 251 279 286 267 272 278 280 281 282 285 288 289 289 289 290 291 287 278
295 288 278 271 265 260 255 252 249 245 238 234 231 227 224 224 225 225 225 224 222 218 213 220 246 276 291 270 267 272 277 277 278 282 285 286 288 287 288 289 287 289 281
297 296 288 277 271 264 260 256 255 251 248 245 238 233 229 228 231 233 231 226 219 209 219 243 266 278 274 263 267 271 272 273 276 279 281 284 286 286 287 286 283 283 280
316 310 302 293 281 273 264 258 256 254 250 247 242 242 240 239 239 235 226 214 209 225 238 262 270 272 263 265 271 271 269 272 274 277 279 282 285 287 287 284 280 278 279
322 316 307 300 293 283 273 266 259 256 247 241 243 244 243 244 235 226 214 216 229 236 257 267 269 263 265 266 266 267 268 270 272 273 275 278 281 284 287 287 285 280 275
332 320 308 299 290 284 278 269 262 255 251 250 247 244 240 236 229 221 224 233 239 249 260 269 254 259 263 266 266 267 269 269 271 273 276 278 280 282 284 285 284 280 274
340 327 313 303 293 281 273 264 258 254 251 245 243 240 239 238 237 234 240 242 251 260 268 252 257 263 269 268 267 268 268 270 273 274 275 277 279 281 282 285 285 282 278
351 341 325 314 305 296 286 278 273 263 250 241 239 238 235 233 238 242 242 249 260 263 263 250 258 263 267 275 271 270 270 270 271 273 274 276 277 278 282 285 285 285 283
353 348 340 334 325 317 308 294 283 264 251 245 247 244 243 245 247 246 249 255 259 260 253 256 258 267 268 267 272 272 271 270 270 271 272 274 276 279 281 283 285 284 283
358 354 348 343 336 328 317 300 286 265 251 250 255 255 254 255 258 265 270 271 267 255 253 256 259 266 268 268 268 270 270 269 269 270 271 273 275 278 279 281 283 284 284
352 346 341 337 332 324 311 297 277 267 264 262 263 263 265 274 276 275 275 270 265 265 266 263 268 272 271 269 266 268 270 270 270 271 272 272 273 275 278 281 283 283 282
339 333 328 320 313 305 299 290 281 273 268 266 267 271 275 279 279 277 274 274 273 271 271 272 276 276 273 269 266 265 265 265 265 266 268 272 272 273 275 278 279 280 282
324 320 315 310 304 297 290 283 278 275 274 274 278 280 281 281 280 279 278 275 272 271 273 274 275 275 273 271 269 268 268 265 265 266 267 270 271 271 273 275 277 278 279
313 310 306 301 296 292 289 286 284 283 282 282 282 283 283 283 282 281 280 279 279 279 279 278 278 276 274 272 270 268 267 268 267 266 267 268 270 270 270 271 272 274 275
Height
1491 1494 1496 1499 1502 1506 1509 1512 1514 1515 1521 1525 1530 1533 1535 1536 1538 1541 1544 1547 1549 1550 1553 1555 1555 1555 1556 1557 1558 1559 1559 1558 1557 1554 1552 1549 1547 1542 1539 1537 1535 1533 1531
1481 1485 1487 1490 1493 1495 1499 1504 1506 1508 1513 1516 1521 1524 1526 1530 1532 1535 1538 1540 1544 1547 1549 1549 1551 1551 1552 1553 1554 1555 1555 1554 1555 1553 1551 1547 1545 1541 1537 1535 1533 1531 1529
1473 1475 1477 1478 1481 1485 1489 1493 1497 1500 1503 1507 1512 1514 1518 1522 1524 1528 1530 1534 1538 1540 1544 1545 1546 1547 1548 1549 1549 1551 1550 1549 1550 1549 1548 1545 1541 1538 1536 1532 1530 1528 1527
1464 1466 1469 1470 1473 1477 1482 1485 1489 1492 1496 1499 1504 1508 1512 1514 1518 1520 1524 1527 1531 1535 1537 1539 1541 1543 1544 1545 1545 1546 1546 1545 1544 1543 1542 1541 1538 1534 1531 1529 1528 1525 1524
1459 1459 1463 1466 1470 1472 1475 1477 1481 1486 1489 1494 1496 1499 1505 1505 1511 1514 1517 1522 1524 1528 1531 1534 1537 1538 1540 1541 1542 1542 1542 1540 1540 1539 1538 1536 1534 1531 1527 1524 1522 1521 1520
1456 1458 1460 1461 1465 1469 1470 1471 1474 1478 1482 1486 1490 1493 1496 1499 1504 1507 1513 1516 1520 1523 1525 1528 1531 1533 1535 1536 1537 1538 1538 1536 1536 1534 1534 1531 1529 1526 1523 1520 1518 1517 1517
1451 1454 1457 1460 1461 1463 1466 1466 1465 1468 1474 1477 1481 1485 1490 1493 1499 1503 1508 1512 1516 1519 1521 1523 1526 1528 1529 1532 1533 1534 1533 1532 1531 1530 1529 1527 1524 1521 1518 1517 1516 1514 1513
1446 1449 1451 1454 1457 1458 1457 1459 1459 1461 1465 1470 1474 1480 1483 1490 1493 1497 1501 1506 1510 1514 1516 1519 1521 1523 1524 1526 1527 1528 1529 1528 1527 1525 1524 1522 1520 1517 1515 1513 1512 1510 1509
1439 1443 1447 1449 1451 1454 1456 1456 1456 1456 1458 1463 1469 1474 1480 1484 1488 1493 1497 1500 1505 1509 1511 1513 1515 1517 1519 1520 1522 1522 1524 1523 1522 1520 1518 1516 1514 1511 1509 1507 1507 1505 1504
1437 1439 1442 1445 1446 1451 1455 1458 1457 1458 1458 1458 1464 1469 1475 1479 1483 1488 1492 1496 1499 1501 1503 1507 1510 1512 1514 1515 1516 1519 1519 1518 1517 1515 1513 1510 1509 1506 1505 1504 1502 1501 1500
1433 1437 1439 1440 1442 1445 1451 1453 1455 1455 1457 1461 1462 1464 1469 1475 1479 1484 1487 1491 1494 1497 1500 1503 1505 1507 1509 1508 1512 1513 1512 1512 1510 1508 1507 1505 1504 1502 1500 1499 1497 1496 1495
1432 1434 1435 1437 1441 1441 1444 1450 1452 1452 1454 1456 1459 1463 1466 1469 1473 1478 1482 1486 1489 1492 1495 1498 1501 1502 1504 1504 1507 1506 1505 1503 1502 1501 1500 1499 1497 1496 1494 1493 1491 1491 1490
1431 1433 1436 1435 1437 1440 1442 1444 1446 1449 1450 1451 1454 1457 1463 1466 1468 1472 1475 1479 1484 1487 1490 1493 1495 1497 1497 1499 1501 1498 1497 1496 1495 1494 1493 1493 1491 1490 1489 1488 1486 1485 1484
1428 1430 1430 1433 1434 1436 1439 1441 1442 1445 1444 1445 1447 1451 1456 1461 1464 1466 1470 1475 1479 1482 1486 1488 1489 1491 1490 1494 1492 1491 1490 1489 1487 1487 1487 1486 1484 1483 1481 1481 1479 1478 1477
1427 1426 1426 1428 1431 1433 1435 1439 1441 1444 1445 1444 1445 1447 1450 1453 1459 1465 1469 1471 1474 1478 1480 1482 1483 1483 1486 1486 1485 1484 1483 1482 1482 1481 1480 1478 1477 1476 1475 1474 1473 1472 1471
1425 1423 1423 1425 1427 1429 1431 1434 1436 1439 1441 1444 1445 1448 1451 1454 1458 1462 1465 1468 1471 1473 1475 1476 1475 1478 1479 1478 1478 1478 1477 1476 1475 1474 1473 1471 1470 1469 1468 1467 1466 1465 1464
1422 1422 1424 1426 1426 1428 1430 1432 1434 1435 1437 1439 1442 1444 1449 1452 1455 1459 1462 1464 1466 1468 1467 1468 1469 1471 1472 1473 1472 1471 1470 1469 1468 1467 1466 1465 1463 1461 1462 1460 1459 1459 1459
1421 1421 1421 1421 1423 1425 1428 1430 1432 1434 1435 1437 1440 1443 1446 1449 1451 1454 1458 1460 1459 1458 1460 1460 1461 1463 1464 1464 1464 1463 1463 1462 1461 1460 1458 1457 1456 1455 1454 1453 1453 1452 1453
1421 1421 1421 1422 1422 1422 1423 1424 1425 1427 1430 1433 1435 1438 1442 1445 1448 1451 1452 1450 1451 1451 1452 1452 1453 1455 1457 1457 1456 1455 1454 1454 1453 1452 1451 1450 1449 1448 1446 1445 1445 1446 1445
1422 1421 1422 1421 1420 1421 1421 1421 1422 1423 1424 1427 1430 1433 1435 1439 1440 1442 1442 1442 1444 1443 1443 1443 1444 1446 1447 1448 1448 1447 1445 1444 1443 1443 1443 1442 1442 1441 1438 1438 1437 1437 1438
1423 1422 1422 1422 1421 1419 1419 1419 1419 1421 1423 1426 1429 1431 1432 1433 1434 1434 1433 1434 1433 1434 1434 1435 1436 1436 1436 1437 1438 1438 1437 1436 1435 1435 1435 1435 1434 1433 1432 1432 1431 1430 1430
1425 1422 1422 1422 1421 1420 1419 1418 1419 1420 1422 1424 1425 1427 1428 1429 1429 1429 1428 1427 1427 1426 1426 1426 1426 1426 1426 1427 1428 1428 1428 1428 1427 1426 1426 1427 1426 1426 1425 1424 1423 1422 1423
1426 1425 1424 1422 1420 1419 1420 1419 1419 1419 1420 1421 1422 1423 1423 1423 1423 1421 1420 1420 1420 1419 1419 1420 1420 1418 1418 1418 1418 1419 1419 1420 1420 1419 1419 1418 1418 1418 1418 1416 1416 1416 1416
1428 1424 1421 1420 1421 1420 1418 1417 1417 1417 1417 1416 1416 1416 1416 1416 1415 1414 1413 1412 1412 1412 1412 1413 1412 1410 1409 1409 1409 1409 1409 1410 1410 1410 1409 1409 1410 1410 1409 1409 1410 1408 1409
1428 1426 1421 1417 1416 1416 1416 1414 1413 1413 1412 1411 1411 1409 1408 1407 1407 1406 1404 1404 1404 1403 1403 1403 1402 1402 1401 1401 1400 1400 1401 1401 1401 1401 1401 1400 1402 1402 1402 1401 1403 1403 1402
1421 1421 1419 1415 1412 1409 1408 1409 1407 1407 1406 1404 1403 1402 1401 1400 1399 1398 1398 1397 1396 1395 1394 1394 1394 1394 1393 1393 1392 1392 1392 1393 1393 1393 1392 1392 1392 1393 1393 1393 1393 1394 1395